TimeCST,TemperatureF,Dew PointF,Humidity,Sea Level PressureIn,VisibilityMPH,Wind Direction,Wind SpeedMPH,Gust SpeedMPH,PrecipitationIn,Events,Conditions,WindDirDegrees,DateUTC
12:53 AM,66.9,57.9,73,29.75,10.0,SSW,17.3,24.2,N/A,,Partly Cloudy,200,2011-11-14 06:53:00
1:51 AM,66.2,57.2,73,29.75,10.0,South,15.0,26.5,N/A,,Mostly Cloudy,190,2011-11-14 07:51:00
1:53 AM,66.2,57.2,73,29.75,10.0,South,16.1,26.5,N/A,,Mostly Cloudy,190,2011-11-14 07:53:00
2:24 AM,66.2,57.2,73,29.75,10.0,South,19.6,-,N/A,,Scattered Clouds,190,2011-11-14 08:24:00
2:53 AM,66.9,57.9,73,29.74,10.0,South,17.3,25.3,N/A,,Mostly Cloudy,190,2011-11-14 08:53:00
3:53 AM,66.9,57.9,73,29.74,10.0,South,17.3,25.3,N/A,,Overcast,190,2011-11-14 09:53:00
4:31 AM,66.2,59.0,78,29.75,10.0,South,16.1,34.5,N/A,,Overcast,190,2011-11-14 10:31:00
4:53 AM,66.9,59.0,76,29.74,10.0,South,16.1,31.1,N/A,,Overcast,190,2011-11-14 10:53:00
5:30 AM,66.2,59.0,78,29.75,10.0,South,18.4,27.6,N/A,,Overcast,190,2011-11-14 11:30:00
5:53 AM,66.2,59.0,78,29.75,10.0,South,20.7,27.6,N/A,,Overcast,190,2011-11-14 11:53:00
6:07 AM,66.2,59.0,78,29.75,10.0,South,21.9,29.9,N/A,,Overcast,190,2011-11-14 12:07:00
6:53 AM,66.0,59.0,78,29.74,10.0,South,15.0,26.5,N/A,,Overcast,190,2011-11-14 12:53:00
7:00 AM,66.2,59.0,78,29.75,10.0,South,19.6,25.3,N/A,,Overcast,190,2011-11-14 13:00:00
7:11 AM,66.2,59.0,78,29.75,10.0,SSW,18.4,28.8,N/A,,Overcast,200,2011-11-14 13:11:00
7:53 AM,66.9,60.1,79,29.74,10.0,SSW,21.9,32.2,N/A,,Overcast,200,2011-11-14 13:53:00
8:11 AM,66.2,60.8,83,29.75,10.0,South,21.9,31.1,N/A,,Overcast,190,2011-11-14 14:11:00
8:53 AM,68.0,60.1,76,29.74,10.0,SSW,21.9,32.2,N/A,,Overcast,200,2011-11-14 14:53:00
9:53 AM,69.1,62.1,78,29.74,10.0,SSW,21.9,32.2,N/A,,Overcast,200,2011-11-14 15:53:00
10:20 AM,71.6,62.6,73,29.75,10.0,SSW,20.7,39.1,N/A,,Mostly Cloudy,200,2011-11-14 16:20:00
10:53 AM,71.1,62.1,73,29.74,10.0,SSW,27.6,38.0,N/A,,Mostly Cloudy,200,2011-11-14 16:53:00
11:53 AM,72.0,63.0,73,29.72,10.0,SSW,29.9,36.8,N/A,,Mostly Cloudy,210,2011-11-14 17:53:00
12:01 PM,71.6,62.6,73,29.72,10.0,SSW,20.7,36.8,N/A,,Overcast,200,2011-11-14 18:01:00
12:28 PM,73.4,62.6,69,29.71,10.0,SSW,20.7,34.5,N/A,,Overcast,200,2011-11-14 18:28:00
12:53 PM,73.9,64.0,71,29.69,10.0,SSW,18.4,32.2,N/A,,Partly Cloudy,200,2011-11-14 18:53:00
1:53 PM,73.9,64.0,71,29.67,10.0,South,19.6,27.6,N/A,,Mostly Cloudy,190,2011-11-14 19:53:00
2:53 PM,73.9,64.0,71,29.68,10.0,SSW,21.9,28.8,N/A,,Mostly Cloudy,200,2011-11-14 20:53:00
3:53 PM,73.9,64.0,71,29.67,10.0,South,19.6,27.6,N/A,,Scattered Clouds,190,2011-11-14 21:53:00
4:42 PM,73.4,62.6,69,29.67,10.0,South,16.1,25.3,N/A,Thunderstorm,Thunderstorm,190,2011-11-14 22:42:00
4:53 PM,73.9,63.0,68,29.66,10.0,SSW,16.1,24.2,N/A,Thunderstorm,Thunderstorm,210,2011-11-14 22:53:00
4:59 PM,69.8,60.8,73,29.74,1.2,West,51.8,62.1,0.05,Rain-Thunderstorm,Light Thunderstorms and Rain,280,2011-11-14 22:59:00
5:03 PM,57.2,55.4,94,29.76,0.2,WSW,25.3,62.1,0.36,Fog-Rain-Thunderstorm,Heavy Thunderstorms and Rain,250,2011-11-14 23:03:00
5:10 PM,57.2,57.2,100,29.71,0.5,WSW,10.4,32.2,0.48,Fog-Rain-Thunderstorm,Heavy Thunderstorms and Rain,240,2011-11-14 23:10:00
5:13 PM,59.0,57.2,94,29.72,1.2,SW,9.2,-,0.50,Rain-Thunderstorm,Thunderstorms and Rain,220,2011-11-14 23:13:00
5:35 PM,62.6,60.8,94,29.75,2.5,SW,15.0,19.6,0.75,Rain-Thunderstorm,Heavy Thunderstorms and Rain,230,2011-11-14 23:35:00
5:44 PM,62.6,60.8,94,29.73,5.0,WSW,12.7,-,0.76,Rain-Thunderstorm,Light Thunderstorms and Rain,240,2011-11-14 23:44:00
5:53 PM,63.0,60.1,90,29.74,7.0,SW,11.5,-,0.78,Rain-Thunderstorm,Light Thunderstorms and Rain,220,2011-11-14 23:53:00
6:45 PM,62.6,60.8,94,29.74,10.0,SSW,9.2,-,0.04,Rain,Light Rain,210,2011-11-15 00:45:00
6:53 PM,64.4,60.8,88,29.76,9.0,SSW,9.2,-,N/A,Rain,Light Rain,210,2011-11-15 00:53:00
7:20 PM,64.4,60.8,88,29.77,8.0,SSW,11.5,-,0.04,Rain-Thunderstorm,Light Thunderstorms and Rain,210,2011-11-15 01:20:00
7:35 PM,62.6,60.8,94,29.76,8.0,South,13.8,-,0.05,Rain,Light Rain,190,2011-11-15 01:35:00
7:53 PM,64.0,61.0,90,29.76,10.0,South,13.8,-,0.06,,Overcast,190,2011-11-15 01:53:00
8:53 PM,63.0,60.1,90,29.78,10.0,SSW,3.5,-,N/A,,Overcast,210,2011-11-15 02:53:00
9:53 PM,62.1,59.0,90,29.81,8.0,SSW,11.5,-,0.03,Rain,Light Rain,210,2011-11-15 03:53:00
10:53 PM,62.1,55.9,80,29.85,6.0,SW,9.2,-,0.12,Rain,Rain,220,2011-11-15 04:53:00
11:53 PM,57.0,51.1,81,29.86,6.0,WSW,6.9,-,0.30,Rain,Rain,240,2011-11-15 05:53:00